Regional Weather Roundup
Issued by NWS

Home | Current Version | Previous Version | Text Only | Print | Product List | Glossary On
Versions: 1 2 3 4 5 6 7 8 9 10 11 12 13 14 15 16 17 18 19 20 21 22 23 24 25 26 27 28 29 30 31 32 33 34 35 36 37 38 39 40 41 42 43 44 45 46 47 48 49 50
324
ASUS45 KBOU 230907
RWRCO

WEATHER ROUNDUP FOR COLORADO
NATIONAL WEATHER SERVICE DENVER/BOULDER CO
300 AM MDT SUN APR 23 2017

NOTE: "FAIR" INDICATES FEW OR NO CLOUDS BELOW 12000 FEET WITH NO
SIGNIFICANT WEATHER AND/OR OBSTRUCTIONS TO VISIBILITY.

COZ001>005-013-030-031-231000-
...NORTHWEST COLORADO...

CITY           SKY/WX    TMP DP  RH WIND       PRES   REMARKS
CRAIG          FAIR      30  25  81 CALM      30.12F
HAYDEN         FAIR      36  21  55 E10       30.13S
MEEKER         FAIR      34  25  69 E3        30.13F
MOUNT WERNER   NOT AVBL
STEAMBOAT SPGS FAIR      32  24  72 NW5       30.14F WCI  27
WALDEN           N/A     30  21  69 SE9       30.15F WCI  22
$$

COZ006>008-011-231000-
...WEST CENTRAL VALLEYS...

CITY           SKY/WX    TMP DP  RH WIND       PRES   REMARKS
GRAND JUNCTION FAIR      46  22  38 SE8       30.07F
MONTROSE       FAIR      38  23  55 S6        30.14S
EAGLE          FAIR      31  25  78 SE5       30.19F WCI  26
RIFLE          FAIR      37  27  67 S3        30.12F
DELTA          FAIR      43  20  40 CALM      30.11F
NUCLA          FAIR      41  19  42 E9        30.15F
$$

COZ017>023-064>068-231000-
...SOUTHWEST COLORADO...

CITY           SKY/WX    TMP DP  RH WIND       PRES   REMARKS
DURANGO        FAIR      31  19  61 NE9       30.19F WCI  23
CORTEZ         FAIR      29  21  72 VRB3      30.14F
PAGOSA SPRINGS FAIR      32  19  58 NE3       30.24F
TELLURIDE      FAIR      42  12  28 CALM      30.24F
WOLF CREEK PAS FAIR      27  12  54 S21G29    30.37F WCI  13
$$

COZ009-010-012-014-032>034-037-058>063-231000-
...CENTRAL COLORADO...

CITY           SKY/WX    TMP DP  RH WIND       PRES   REMARKS
ASPEN          FAIR      28  20  71 S9        30.16F WCI  19
BUENA VISTA    FAIR      25  21  86 W6        30.23F WCI  18
COPPER MTN     FAIR      34   0  23 MISG      30.29F
BERTHOUD PASS  FAIR      23  12  63 NW20      30.26F WCI   8
COTTONWOOD PAS FAIR      30  28  93 N5        30.24F WCI  25
GUNNISON       FAIR      27  21  78 S5        30.23F WCI  22
KREMMLING      FAIR      32  28  86 CALM      30.19S
LEADVILLE      FAIR      21  18  88 NE6       30.24F WCI  13
MONARCH PASS   FAIR      27  18  69 SW28      30.39F WCI  11
SALIDA         FAIR      34  28  77 N3        30.29F
SUNLIGHT       FAIR      30  18  59 SW16G22   30.29S WCI  19
WILKERSON PASS FAIR      25  21  86 SW23G36   30.23F WCI  10
$$

COZ069>075-231000-
...SAN LUIS VALLEY/SANGRE DE CRISTO MOUNTAINS...

CITY           SKY/WX    TMP DP  RH WIND       PRES   REMARKS
ALAMOSA        FAIR      28  22  78 CALM      30.23F
LA VETA PASS   FAIR      28  27  93 SW31G43   30.32F WCI  12
SAGUACHE       FAIR      28  19  69 N6        30.24F WCI  22
$$

COZ035-036-038>040-231000-
...NORTHERN COLORADO FRONT RANGE...

CITY           SKY/WX    TMP DP  RH WIND       PRES   REMARKS
DENVER INTL AP FAIR      44  30  57 S20       30.04F
DMNS CITY PARK   N/A     44  30  57 S8        30.04F
AURORA         PTCLDY    43  35  72 S24G30    30.05F
FRONT RANGE AP FAIR      45  32  61 S18G30    30.06F
ERIE MUNI ARPT FAIR      36  32  85 CALM      30.05F
BOULDER MUN AP FAIR      39  32  75 CALM      30.04F
CENTENNIAL     FAIR      42  30  62 SE8       30.06F
BROOMFIELD     FAIR      39  30  70 SW3       30.05F
FORT COLLINS   FAIR      38  34  85 N8        30.06F
LONGMONT       FAIR      35  31  85 NW3       30.06F FOG
$$

COZ041-046-047-076>085-087-088-231000-
...PIKES PEAK/PALMER DIVIDE AND SOUTHERN FOOTHILLS...

CITY           SKY/WX    TMP DP  RH WIND       PRES   REMARKS
COLO. SPRINGS  FAIR      37  31  78 SE12      30.15F
A. F. ACADEMY  FAIR      33  29  83 CALM      30.13F
SCHRIEVER AFB  FAIR      33  31  92 SE10      30.16F WCI  24
ELLICOTT       FAIR     N/A N/A N/A S10       30.15F
FALCON         FAIR      33  31  91 S9        30.16F WCI  25
FORT CARSON    FAIR      38  30  72 S14       30.14F
LIMON          FAIR      37  33  85 S13G20    30.14F
MONUMENT HILL  FAIR      34  28  80 S21       30.12F WCI  22
TRINIDAD       FAIR      38  29  70 SW10      30.18F
$$

COZ042>045-048>051-090-091-231000-
...NORTHEAST COLORADO...

CITY           SKY/WX    TMP DP  RH WIND       PRES   REMARKS
GREELEY ARPT   FAIR      36  34  92 E6        30.07F
AKRON          FAIR      39  32  76 S15       30.10F
BURLINGTON     NOT AVBL
WRAY           NOT AVBL
STERLING       FAIR      37  34  87 S8        30.08F
HOLYOKE        FAIR      41  34  75 S12       30.13F
FORT MORGAN    FAIR      38  33  82 SE8       30.08F
$$

COZ086-089-092>099-231000-
...SOUTHEAST COLORADO...

CITY           SKY/WX    TMP DP  RH WIND       PRES   REMARKS
PUEBLO         FAIR      39  34  82 CALM      30.15F
LA JUNTA       FAIR      44  32  62 S8        30.17F
LAMAR          FAIR      39  33  79 S10       30.18F
SPRINGFIELD      N/A     28  26  92 SW8       30.22F WCI  20
$$




USA.gov is the U.S. government's official web portal to all federal, state and local government web resources and services.